FW0857 Weather Reports


Display with metric or nautical units.
time (UTC)temp
F
wind
direction
speed
MPH
gust
MPH
rain 1hr
in
rain 24hr
in
rain mn
in
humidity
%
barometer
mb
20260507191514 76 322 10.0 27.0 0.00 0.00 0.00 17 991.4
20260507190010 74 179 5.0 20.0 0.00 0.00 0.00 18 991.7
20260507184508 73 230 2.0 15.0 0.00 0.00 0.00 24 992.1
20260507183001 73 292 3.0 13.0 0.00 0.00 0.00 24 992.3
20260507181557 71 201 5.0 10.0 0.00 0.00 0.00 26 992.4
20260507180053 69 251 4.0 9.0 0.00 0.00 0.00 27 992.7
20260507174550 70 300 2.0 10.0 0.00 0.00 0.00 27 993.0
20260507173048 69 92 1.0 13.0 0.00 0.00 0.00 28 993.3
20260507171549 69 208 5.0 12.0 0.00 0.00 0.00 27 993.5
20260507170041 69 311 3.0 11.0 0.00 0.00 0.00 28 993.6
20260507164555 68 301 2.0 11.0 0.00 0.00 0.00 29 993.7
20260507163040 67 235 1.0 13.0 0.00 0.00 0.00 29 993.8
20260507161539 66 217 7.0 13.0 0.00 0.00 0.00 30 993.9
20260507160037 66 225 5.0 11.0 0.00 0.00 0.00 30 994.3
20260507154537 66 226 1.0 7.0 0.00 0.00 0.00 32 994.6
20260507153038 64 241 1.0 6.0 0.00 0.00 0.00 34 994.8
20260507151534 64 243 0.0 6.0 0.00 0.00 0.00 34 994.8
20260507150034 62 225 0.0 5.0 0.00 0.00 0.00 38 994.9
20260507144531 59 145 0.0 1.0 0.00 0.00 0.00 39 995.0
20260507143053 58 145 1.0 3.0 0.00 0.00 0.00 40 995.1
20260507141623 57 142 0.0 2.0 0.00 0.00 0.00 45 995.2
20260507140059 55 142 0.0 4.0 0.00 0.00 0.00 47 995.2
20260507134558 51 96 1.0 5.0 0.00 0.00 0.00 50 995.2
20260507133101 48 360 5.0 7.0 0.00 0.00 0.00 54 995.2
20260507131610 45 360 4.0 7.0 0.00 0.00 0.00 58 995.4
20260507130050 41 360 5.0 7.0 0.00 0.00 0.00 68 995.3
20260507124541 39 123 3.0 5.0 0.00 0.00 0.00 68 995.4
20260507123034 39 115 2.0 4.0 0.00 0.00 0.00 70 995.2
20260507121529 41 115 1.0 6.0 0.00 0.00 0.00 62 995.1
20260507120026 41 95 2.0 7.0 0.00 0.00 0.00 60 995.1
20260507114557 41 120 4.0 6.0 0.00 0.00 0.00 60 995.1
20260507113053 41 107 5.0 7.0 0.00 0.00 0.00 61 995.1
20260507111551 41 111 4.0 6.0 0.00 0.00 0.00 60 995.0
20260507110052 42 113 4.0 7.0 0.00 0.00 0.00 60 995.0
20260507104554 41 109 4.0 6.0 0.00 0.00 0.00 62 995.0
20260507103047 40 92 4.0 6.0 0.00 0.00 0.00 65 995.0
20260507101517 41 85 3.0 5.0 0.00 0.00 0.00 61 995.0
20260507100015 42 80 0.0 10.0 0.00 0.00 0.00 51 995.0
20260507094513 42 111 5.0 7.0 0.00 0.00 0.00 58 994.8
20260507093011 42 115 2.0 5.0 0.00 0.00 0.00 58 994.8
20260507091514 41 114 3.0 6.0 0.00 0.00 0.00 61 994.7
20260507090009 41 110 1.0 4.0 0.00 0.00 0.00 63 994.8
20260507084505 39 110 4.0 5.0 0.00 0.00 0.00 68 995.0
20260507083002 39 114 3.0 6.0 0.00 0.00 0.00 71 995.1
20260507081603 40 151 0.0 4.0 0.00 0.00 0.00 67 995.3
20260507081501 40 151 1.0 4.0 0.00 0.00 0.00 68 995.3
20260507080120 41 151 2.0 4.0 0.00 0.00 0.00 67 995.4
20260507074558 42 151 1.0 5.0 0.00 0.00 0.00 64 995.6
20260507073056 43 151 2.0 3.0 0.00 0.00 0.00 66 995.8
20260507071559 43 153 0.0 6.0 0.00 0.00 0.00 61 995.8
20260507064651 40 109 1.0 4.0 0.00 0.00 0.00 72 995.6
20260507063053 40 109 1.0 4.0 0.00 0.00 0.00 69 995.5
20260507061546 41 60 0.0 2.0 0.00 0.00 0.00 69 995.4
20260507054509 43 60 0.0 4.0 0.00 0.00 0.00 63 995.2
20260507053005 46 59 0.0 1.0 0.00 0.00 0.00 59 995.3
20260507051608 49 360 0.0 1.0 0.00 0.00 0.00 54 995.2
20260507050056 54 63 0.0 0.0 0.00 0.00 0.00 44 995.2
20260507044556 58 360 1.0 4.0 0.00 0.00 0.00 31 995.2
20260507043047 60 46 2.0 9.0 0.00 0.00 0.00 20 995.1
20260507041545 61 57 4.0 8.0 0.00 0.00 0.00 20 994.9
20260507040042 61 9 3.0 8.0 0.00 0.00 0.00 20 994.8
20260507034540 62 9 4.0 8.0 0.00 0.00 0.00 19 994.7
20260507033039 61 11 5.0 8.0 0.00 0.00 0.00 20 994.5
20260507031536 61 50 3.0 5.0 0.00 0.00 0.00 19 994.4
20260507030036 63 60 4.0 7.0 0.00 0.00 0.00 18 994.1
20260507024529 64 59 6.0 9.0 0.00 0.00 0.00 18 993.8
20260507023025 64 24 2.0 8.0 0.00 0.00 0.00 18 993.4
20260507021521 65 40 4.0 8.0 0.00 0.00 0.00 17 993.1
20260507020015 66 15 3.0 8.0 0.00 0.00 0.00 16 993.0
20260507014515 67 11 6.0 11.0 0.00 0.00 0.00 13 992.8
20260507013015 69 13 8.0 13.0 0.00 0.00 0.00 13 992.7
20260507011512 70 22 10.0 20.0 0.00 0.00 0.00 13 992.5
20260507010012 72 340 10.0 18.0 0.00 0.00 0.00 12 992.1
20260507004512 73 336 8.0 19.0 0.00 0.00 0.00 12 992.0
20260507003009 73 326 15.0 22.0 0.00 0.00 0.00 11 991.9
20260507001511 74 348 12.0 21.0 0.00 0.00 0.00 11 991.7
20260507000007 74 355 16.0 23.0 0.00 0.00 0.00 10 991.6
20260506234508 75 346 17.0 27.0 0.00 0.00 0.00 12 991.7
20260506233010 75 355 13.0 23.0 0.00 0.00 0.00 12 991.6
20260506231503 75 323 13.0 24.0 0.00 0.00 0.00 12 991.5
20260506230007 76 355 13.0 24.0 0.00 0.00 0.00 12 991.6
20260506224502 76 292 16.0 29.0 0.00 0.00 0.00 11 991.6
20260506223031 76 331 10.0 23.0 0.00 0.00 0.00 10 991.6
20260506221532 76 333 15.0 24.0 0.00 0.00 0.00 11 991.6
20260506220035 76 284 9.0 28.0 0.00 0.00 0.00 11 991.6
20260506214526 77 5 12.0 28.0 0.00 0.00 0.00 12 991.6
20260506213027 77 9 14.0 48.0 0.00 0.00 0.00 12 991.6
20260506211529 77 340 11.0 23.0 0.00 0.00 0.00 12 991.8
20260506210025 77 355 19.0 28.0 0.00 0.00 0.00 12 991.9
20260506204518 77 306 12.0 28.0 0.00 0.00 0.00 13 992.0
20260506203016 76 298 20.0 28.0 0.00 0.00 0.00 13 992.2
20260506201525 76 313 8.0 23.0 0.00 0.00 0.00 14 992.1
20260506200007 77 324 9.0 22.0 0.00 0.00 0.00 15 992.2
20260506194506 75 324 14.0 21.0 0.00 0.00 0.00 18 992.1
20260506193001 74 10 15.0 20.0 0.00 0.00 0.00 16 992.6